Date String (YYYY-MM-DD hh:mm:ss) UTC,Instrument flags,Ambient pressure (hPa),Sample flow (lpm),Bypass flow (lpm),Sample temperature (°C),Ambient temperature (°C),ASC tube jacket temperature (°C),LED temperature (°C),Box temperature (°C),Sample RH (%),Span deviation,Mass concentration (μg/m³),Mass concentration (μg/m³),Mass concentration (μg/m³)
DateTimeUTC,F1_M11,P_M11,Q1_M11,Q2_M11,T1_M11,T2_M11,T3_M11,T4_M11,T5_M11,U1_M11,ZSPAN_M11,X0_M11,X2_M11,X1_M11
2022-05-24 05:00:00,,0826.7,5.00,0.00,29.5,28.4,00.0,38.5,31.3,19.2,0000.0,0008.95,0004.74,0004.24
2022-05-24 05:01:00,,0826.7,4.99,0.00,29.5,28.4,00.0,38.5,31.3,19.1,0000.0,0008.99,0004.75,0004.25
2022-05-24 05:02:00,,0826.7,5.01,0.00,29.5,28.4,00.0,38.5,31.3,19.1,0000.0,0008.98,0004.75,0004.25
2022-05-24 05:03:00,,0826.7,4.99,0.00,29.5,28.4,00.0,38.5,31.3,19.3,0000.0,0008.81,0004.73,0004.25
2022-05-24 05:04:00,,0826.7,5.00,0.00,29.5,28.4,00.0,38.5,31.3,19.4,0000.0,0008.68,0004.76,0004.26
2022-05-24 05:05:00,,0826.7,5.00,0.00,29.5,28.4,00.0,38.5,31.3,19.6,0000.0,0008.65,0004.75,0004.26
2022-05-24 05:06:00,,0826.7,5.01,0.00,29.5,28.4,00.0,38.5,31.3,19.4,0000.0,0008.56,0004.71,0004.26
2022-05-24 05:07:00,,0826.7,4.99,0.00,29.5,28.4,00.0,38.5,31.3,18.7,0000.0,0008.60,0004.68,0004.23
2022-05-24 05:08:00,,0826.7,4.99,0.00,29.5,28.4,00.0,38.5,31.3,18.6,0000.0,0008.35,0004.64,0004.20
2022-05-24 05:09:00,,0826.7,5.00,0.00,29.5,28.4,00.0,38.5,31.3,18.9,0000.0,0008.66,0004.63,0004.19
2022-05-24 05:10:00,,0826.7,5.00,0.00,29.5,28.4,00.0,38.5,31.3,19.0,0000.0,0008.90,0004.65,0004.17
2022-05-24 05:11:00,,0826.7,5.01,0.00,29.5,28.4,00.0,38.5,31.3,18.9,0000.0,0008.90,0004.63,0004.13
2022-05-24 05:12:00,,0826.7,5.00,0.00,29.5,28.3,00.0,38.5,31.3,18.7,0000.0,0008.91,0004.55,0004.07
2022-05-24 05:13:00,,0826.7,5.00,0.00,29.5,28.3,00.0,38.5,31.3,18.6,0000.0,0008.78,0004.47,0004.01
2022-05-24 05:14:00,,0826.7,5.01,0.00,29.5,28.3,00.0,38.5,31.3,18.7,0000.0,0008.75,0004.42,0003.93
2022-05-24 05:15:00,,0826.7,5.00,0.00,29.5,28.3,00.0,38.4,31.3,18.8,0000.0,0008.59,0004.34,0003.86
2022-05-24 05:16:00,,0826.7,5.00,0.00,29.5,28.3,00.0,38.4,31.3,18.9,0000.0,0008.52,0004.27,0003.79
2022-05-24 05:17:00,,0826.7,5.00,0.00,29.5,28.3,00.0,38.4,31.3,18.9,0000.0,0008.49,0004.21,0003.71
2022-05-24 05:18:00,,0826.7,5.01,0.00,29.5,28.3,00.0,38.4,31.3,18.8,0000.0,0008.09,0004.15,0003.65
2022-05-24 05:19:00,,0826.7,5.00,0.00,29.5,28.3,00.0,38.4,31.3,18.7,0000.0,0007.53,0004.05,0003.58
2022-05-24 05:20:00,,0826.7,4.99,0.00,29.5,28.3,00.0,38.4,31.3,18.7,0000.0,0006.87,0003.95,0003.51
2022-05-24 05:21:00,,0826.6,4.99,0.00,29.5,28.3,00.0,38.4,31.3,18.6,0000.0,0006.31,0003.85,0003.45
2022-05-24 05:22:00,,0826.6,4.99,0.00,29.5,28.3,00.0,38.4,31.3,18.7,0000.0,0006.16,0003.79,0003.41
2022-05-24 05:23:00,,0826.6,4.99,0.00,29.5,28.3,00.0,38.4,31.3,18.7,0000.0,0005.89,0003.76,0003.39
2022-05-24 05:24:00,,0826.6,5.00,0.00,29.5,28.3,00.0,38.4,31.3,18.7,0000.0,0005.86,0003.75,0003.38
2022-05-24 05:25:00,,0826.6,5.01,0.00,29.5,28.3,00.0,38.4,31.3,18.8,0000.0,0005.88,0003.76,0003.38
2022-05-24 05:26:00,,0826.6,5.00,0.00,29.5,28.3,00.0,38.4,31.2,18.8,0000.0,0006.30,0003.79,0003.39
2022-05-24 05:27:00,,0826.6,4.99,0.00,29.5,28.3,00.0,38.4,31.2,18.7,0000.0,0006.56,0003.83,0003.41
2022-05-24 05:28:00,,0826.6,5.00,0.00,29.4,28.3,00.0,38.4,31.2,18.7,0000.0,0006.70,0003.85,0003.43
2022-05-24 05:29:00,,0826.7,5.00,0.00,29.4,28.3,00.0,38.4,31.2,18.8,0000.0,0007.44,0003.88,0003.45
2022-05-24 05:30:00,,0826.6,5.01,0.00,29.4,28.3,00.0,38.4,31.2,18.9,0000.0,0007.48,0003.90,0003.48
2022-05-24 05:31:00,,0826.6,5.00,0.00,29.4,28.3,00.0,38.4,31.2,18.9,0000.0,0007.65,0003.96,0003.51
2022-05-24 05:32:00,,0826.6,4.99,0.00,29.4,28.3,00.0,38.4,31.2,18.9,0000.0,0007.88,0004.00,0003.55
2022-05-24 05:33:00,,0826.6,4.99,0.00,29.4,28.3,00.0,38.4,31.2,18.9,0000.0,0007.99,0004.04,0003.58
2022-05-24 05:34:00,,0826.6,5.01,0.00,29.4,28.3,00.0,38.4,31.2,18.9,0000.0,0008.32,0004.11,0003.62
2022-05-24 05:35:00,,0826.6,5.00,0.00,29.4,28.3,00.0,38.4,31.2,19.2,0000.0,0008.42,0004.16,0003.66
2022-05-24 05:36:00,,0826.6,5.01,0.00,29.4,28.3,00.0,38.4,31.2,19.3,0000.0,0008.61,0004.24,0003.70
2022-05-24 05:37:00,,0826.6,4.99,0.00,29.4,28.3,00.0,38.4,31.2,19.5,0000.0,0008.44,0004.25,0003.73
2022-05-24 05:38:00,,0826.6,5.00,0.00,29.4,28.3,00.0,38.4,31.2,19.5,0000.0,0008.26,0004.26,0003.77
2022-05-24 05:39:00,,0826.6,5.01,0.00,29.4,28.3,00.0,38.4,31.2,19.4,0000.0,0008.27,0004.28,0003.80
2022-05-24 05:40:00,,0826.6,5.01,0.00,29.4,28.3,00.0,38.4,31.2,19.4,0000.0,0007.87,0004.29,0003.81
2022-05-24 05:41:00,,0826.6,5.00,0.00,29.4,28.2,00.0,38.4,31.2,19.2,0000.0,0008.04,0004.33,0003.82
2022-05-24 05:42:00,,0826.6,5.00,0.00,29.4,28.2,00.0,38.4,31.2,19.0,0000.0,0008.14,0004.37,0003.85
2022-05-24 05:43:00,,0826.6,5.00,0.00,29.4,28.2,00.0,38.4,31.2,18.8,0000.0,0007.98,0004.38,0003.86
2022-05-24 05:44:00,,0826.5,4.99,0.00,29.4,28.2,00.0,38.4,31.2,18.8,0000.0,0007.91,0004.38,0003.86
2022-05-24 05:45:00,,0826.5,4.98,0.00,29.4,28.2,00.0,38.3,31.2,18.7,0000.0,0007.70,0004.40,0003.86
2022-05-24 05:46:00,,0826.5,5.00,0.00,29.4,28.2,00.0,38.3,31.1,18.5,0000.0,0007.69,0004.42,0003.86
2022-05-24 05:47:00,,0826.5,5.00,0.00,29.4,28.1,00.0,38.3,31.1,18.4,0000.0,0007.52,0004.37,0003.86
2022-05-24 05:48:00,,0826.6,5.00,0.00,29.4,28.1,00.0,38.3,31.1,18.4,0000.0,0007.56,0004.37,0003.85
2022-05-24 05:49:00,,0826.6,5.00,0.00,29.3,28.1,00.0,38.3,31.1,18.6,0000.0,0007.56,0004.36,0003.85
2022-05-24 05:50:00,,0826.6,4.99,0.00,29.3,28.1,00.0,38.3,31.1,18.6,0000.0,0007.52,0004.34,0003.85
2022-05-24 05:51:00,,0826.6,4.99,0.00,29.3,28.1,00.0,38.3,31.1,18.7,0000.0,0007.65,0004.39,0003.85
2022-05-24 05:52:00,,0826.6,5.00,0.00,29.3,28.1,00.0,38.3,31.1,18.7,0000.0,0007.53,0004.40,0003.86
2022-05-24 05:53:00,,0826.6,4.99,0.00,29.3,28.1,00.0,38.3,31.1,18.8,0000.0,0007.28,0004.36,0003.85
2022-05-24 05:54:00,,0826.6,5.00,0.00,29.3,28.1,00.0,38.3,31.1,18.9,0000.0,0007.18,0004.34,0003.85
2022-05-24 05:55:00,,0826.6,5.00,0.00,29.3,28.1,00.0,38.3,31.1,19.1,0000.0,0007.13,0004.33,0003.85
2022-05-24 05:56:00,,0826.6,5.01,0.00,29.3,28.1,00.0,38.3,31.1,19.2,0000.0,0006.98,0004.30,0003.84
2022-05-24 05:57:00,,0826.6,4.99,0.00,29.3,28.0,00.0,38.3,31.1,19.2,0000.0,0007.08,0004.30,0003.83
2022-05-24 05:58:00,,0826.6,5.00,0.00,29.3,28.0,00.0,38.3,31.1,19.2,0000.0,0007.10,0004.28,0003.81
2022-05-24 05:59:00,,0826.7,5.01,0.00,29.3,28.0,00.0,38.3,31.1,19.3,0000.0,0007.07,0004.26,0003.78
